Wetterdaten: aktuell Samstag, 16.02.2019 06:45
Datum Zeit Temp. A. Temp. A. min Feuchte A. Luftdruck Regen Wind Richtung Richtung Sonnenschein Solar Taupunkt Windchill Windben
16.02.2019 06:45 -2,6 C -2,6 C 90 % 1038,2 hPa 0,0 l/m 0,0 km/h (0 Bft) S 176 0 min 0 W/m -4,0 C -2,6 C 0,0 km/h (0 Bft)
16.02.2019 06:40 -2,6 C -2,6 C 90 % 1038,2 hPa 0,0 l/m 0,3 km/h (0 Bft) S 176 0 min 0 W/m -4,0 C -2,6 C 1,6 km/h (1 Bft)
16.02.2019 06:35 -2,5 C -2,5 C 90 % 1038,3 hPa 0,0 l/m 0,9 km/h (0 Bft) S 176 0 min 0 W/m -3,9 C -2,5 C 3,2 km/h (1 Bft)
16.02.2019 06:30 -2,4 C -2,4 C 90 % 1038,2 hPa 0,0 l/m 0,7 km/h (0 Bft) S-SW 200 0 min 0 W/m -3,8 C -2,4 C 3,2 km/h (1 Bft)
16.02.2019 06:25 -2,4 C -2,4 C 90 % 1038,2 hPa 0,0 l/m 1,4 km/h (1 Bft) S-SW 200 0 min 0 W/m -3,8 C -2,4 C 3,2 km/h (1 Bft)
16.02.2019 06:20 -2,4 C -2,4 C 90 % 1038,2 hPa 0,0 l/m 0,0 km/h (0 Bft) S-SW 200 0 min 0 W/m -3,8 C -2,4 C 0,0 km/h (0 Bft)
16.02.2019 06:15 -2,4 C -2,4 C 90 % 1038,2 hPa 0,0 l/m 0,0 km/h (0 Bft) S-SW 200 0 min 0 W/m -3,8 C -2,4 C 0,0 km/h (0 Bft)
16.02.2019 06:10 -2,4 C -2,4 C 90 % 1038,2 hPa 0,0 l/m 0,0 km/h (0 Bft) S-SW 200 0 min 0 W/m -3,8 C -2,4 C 0,0 km/h (0 Bft)
16.02.2019 06:05 -2,4 C -2,4 C 90 % 1038,1 hPa 0,0 l/m 0,2 km/h (0 Bft) S-SW 200 0 min 0 W/m -3,8 C -2,4 C 1,6 km/h (1 Bft)
16.02.2019 06:00 -2,3 C -2,4 C 90 % 1038,2 hPa 0,0 l/m 0,2 km/h (0 Bft) S-SW 200 0 min 0 W/m -3,7 C -2,3 C 1,6 km/h (1 Bft)
16.02.2019 05:55 -2,3 C -2,3 C 90 % 1038,1 hPa 0,0 l/m 0,3 km/h (0 Bft) S-SW 200 0 min 0 W/m -3,7 C -2,3 C 1,6 km/h (1 Bft)
16.02.2019 05:50 -2,3 C -2,3 C 90 % 1038,1 hPa 0,0 l/m 0,4 km/h (0 Bft) S-SW 200 0 min 0 W/m -3,7 C -2,3 C 3,2 km/h (1 Bft)
16.02.2019 05:45 -2,2 C -2,3 C 90 % 1038,1 hPa 0,0 l/m 0,2 km/h (0 Bft) S-SW 200 0 min 0 W/m -3,6 C -2,2 C 1,6 km/h (1 Bft)
16.02.2019 05:40 -2,2 C -2,2 C 90 % 1038,0 hPa 0,0 l/m 0,0 km/h (0 Bft) S-SW 200 0 min 0 W/m -3,6 C -2,2 C 0,0 km/h (0 Bft)
16.02.2019 05:35 -2,2 C -2,2 C 90 % 1037,9 hPa 0,0 l/m 0,0 km/h (0 Bft) S-SW 200 0 min 0 W/m -3,6 C -2,2 C 0,0 km/h (0 Bft)
16.02.2019 05:30 -2,2 C -2,2 C 90 % 1037,9 hPa 0,0 l/m 0,0 km/h (0 Bft) S-SW 200 0 min 0 W/m -3,6 C -2,2 C 0,0 km/h (0 Bft)
16.02.2019 05:25 -2,1 C -2,1 C 90 % 1038,0 hPa 0,0 l/m 0,0 km/h (0 Bft) S-SW 200 0 min 0 W/m -3,5 C -2,1 C 0,0 km/h (0 Bft)
16.02.2019 05:20 -2,1 C -2,1 C 90 % 1038,0 hPa 0,0 l/m 0,0 km/h (0 Bft) S-SW 200 0 min 0 W/m -3,5 C -2,1 C 0,0 km/h (0 Bft)
16.02.2019 05:15 -2,0 C -2,0 C 90 % 1038,0 hPa 0,0 l/m 0,0 km/h (0 Bft) S-SW 200 0 min 0 W/m -3,4 C -2,0 C 0,0 km/h (0 Bft)
16.02.2019 05:10 -2,0 C -2,1 C 90 % 1038,0 hPa 0,0 l/m 0,0 km/h (0 Bft) S-SW 200 0 min 0 W/m -3,4 C -2,0 C 0,0 km/h (0 Bft)
16.02.2019 05:05 -2,1 C -2,1 C 90 % 1037,9 hPa 0,0 l/m 0,0 km/h (0 Bft) S-SW 200 0 min 0 W/m -3,5 C -2,1 C 0,0 km/h (0 Bft)
16.02.2019 05:00 -2,0 C -2,0 C 89 % 1037,9 hPa 0,0 l/m 0,4 km/h (0 Bft) S-SW 200 0 min 0 W/m -3,6 C -2,0 C 3,2 km/h (1 Bft)
16.02.2019 04:55 -2,0 C -2,0 C 89 % 1037,8 hPa 0,0 l/m 0,0 km/h (0 Bft) S-SW 198 0 min 0 W/m -3,6 C -2,0 C 0,0 km/h (0 Bft)
16.02.2019 04:50 -1,9 C -1,9 C 89 % 1037,9 hPa 0,0 l/m 0,1 km/h (0 Bft) S-SW 198 0 min 0 W/m -3,5 C -1,9 C 3,2 km/h (1 Bft)
16.02.2019 04:45 -1,8 C -1,8 C 89 % 1037,9 hPa 0,0 l/m 0,1 km/h (0 Bft) S-SW 200 0 min 0 W/m -3,4 C -1,8 C 1,6 km/h (1 Bft)
16.02.2019 04:40 -1,8 C -1,8 C 89 % 1037,9 hPa 0,0 l/m 0,0 km/h (0 Bft) S-SW 200 0 min 0 W/m -3,4 C -1,8 C 0,0 km/h (0 Bft)
16.02.2019 04:35 -1,8 C -1,8 C 89 % 1037,9 hPa 0,0 l/m 0,0 km/h (0 Bft) S-SW 200 0 min 0 W/m -3,4 C -1,8 C 0,0 km/h (0 Bft)
16.02.2019 04:30 -1,7 C -1,7 C 89 % 1037,9 hPa 0,0 l/m 0,0 km/h (0 Bft) S-SW 200 0 min 0 W/m -3,3 C -1,7 C 0,0 km/h (0 Bft)
16.02.2019 04:25 -1,7 C -1,7 C 89 % 1037,9 hPa 0,0 l/m 0,1 km/h (0 Bft) S-SW 200 0 min 0 W/m -3,3 C -1,7 C 1,6 km/h (1 Bft)
16.02.2019 04:20 -1,7 C -1,7 C 89 % 1037,8 hPa 0,0 l/m 1,5 km/h (1 Bft) S-SW 200 0 min 0 W/m -3,3 C -1,7 C 4,8 km/h (1 Bft)
16.02.2019 04:15 -1,7 C -1,7 C 89 % 1037,7 hPa 0,0 l/m 3,7 km/h (1 Bft) S-SW 200 0 min 0 W/m -3,3 C -1,7 C 6,4 km/h (2 Bft)
16.02.2019 04:10 -1,7 C -1,7 C 89 % 1037,7 hPa 0,0 l/m 3,3 km/h (1 Bft) S-SW 204 0 min 0 W/m -3,3 C -1,7 C 4,8 km/h (1 Bft)
16.02.2019 04:05 -1,7 C -1,7 C 89 % 1037,7 hPa 0,0 l/m 3,2 km/h (1 Bft) S 184 0 min 0 W/m -3,3 C -1,7 C 4,8 km/h (1 Bft)
16.02.2019 04:00 -1,7 C -1,7 C 89 % 1037,7 hPa 0,0 l/m 1,1 km/h (1 Bft) S-SO 157 0 min 0 W/m -3,3 C -1,7 C 3,2 km/h (1 Bft)
16.02.2019 03:55 -1,6 C -1,6 C 89 % 1037,7 hPa 0,0 l/m 0,0 km/h (0 Bft) SO 140 0 min 0 W/m -3,2 C -1,6 C 0,0 km/h (0 Bft)
16.02.2019 03:50 -1,5 C -1,5 C 89 % 1037,7 hPa 0,0 l/m 0,0 km/h (0 Bft) SO 140 0 min 0 W/m -3,1 C -1,5 C 0,0 km/h (0 Bft)
16.02.2019 03:45 -1,5 C -1,5 C 88 % 1037,7 hPa 0,0 l/m 0,0 km/h (0 Bft) SO 140 0 min 0 W/m -3,2 C -1,5 C 0,0 km/h (0 Bft)
16.02.2019 03:40 -1,4 C -1,5 C 88 % 1037,7 hPa 0,0 l/m 0,1 km/h (0 Bft) SO 140 0 min 0 W/m -3,1 C -1,4 C 1,6 km/h (1 Bft)
16.02.2019 03:35 -1,5 C -1,5 C 88 % 1037,7 hPa 0,0 l/m 1,9 km/h (1 Bft) SO 140 0 min 0 W/m -3,2 C -1,5 C 3,2 km/h (1 Bft)
16.02.2019 03:30 -1,5 C -1,5 C 88 % 1037,7 hPa 0,0 l/m 1,2 km/h (1 Bft) SO 140 0 min 0 W/m -3,2 C -1,5 C 3,2 km/h (1 Bft)
16.02.2019 03:25 -1,5 C -1,5 C 88 % 1037,7 hPa 0,0 l/m 0,7 km/h (0 Bft) SO 140 0 min 0 W/m -3,2 C -1,5 C 1,6 km/h (1 Bft)
16.02.2019 03:20 -1,5 C -1,5 C 88 % 1037,8 hPa 0,0 l/m 0,9 km/h (0 Bft) SO 140 0 min 0 W/m -3,2 C -1,5 C 3,2 km/h (1 Bft)
16.02.2019 03:15 -1,4 C -1,4 C 88 % 1037,9 hPa 0,0 l/m 1,4 km/h (1 Bft) SO 140 0 min 0 W/m -3,1 C -1,4 C 3,2 km/h (1 Bft)
16.02.2019 03:10 -1,4 C -1,4 C 88 % 1038,0 hPa 0,0 l/m 0,5 km/h (0 Bft) SO 140 0 min 0 W/m -3,1 C -1,4 C 3,2 km/h (1 Bft)
16.02.2019 03:05 -1,4 C -1,4 C 88 % 1038,0 hPa 0,0 l/m 0,0 km/h (0 Bft) SO 140 0 min 0 W/m -3,1 C -1,4 C 0,0 km/h (0 Bft)
16.02.2019 03:00 -1,3 C -1,3 C 88 % 1038,0 hPa 0,0 l/m 0,0 km/h (0 Bft) SO 140 0 min 0 W/m -3,0 C -1,3 C 0,0 km/h (0 Bft)
16.02.2019 02:55 -1,3 C -1,3 C 88 % 1038,0 hPa 0,0 l/m 0,0 km/h (0 Bft) SO 140 0 min 0 W/m -3,0 C -1,3 C 0,0 km/h (0 Bft)
16.02.2019 02:50 -1,3 C -1,3 C 88 % 1038,2 hPa 0,0 l/m 0,0 km/h (0 Bft) SO 140 0 min 0 W/m -3,0 C -1,3 C 0,0 km/h (0 Bft)
16.02.2019 02:45 -1,2 C -1,2 C 88 % 1038,2 hPa 0,0 l/m 0,0 km/h (0 Bft) SO 140 0 min 0 W/m -2,9 C -1,2 C 0,0 km/h (0 Bft)
16.02.2019 02:40 -1,1 C -1,1 C 88 % 1038,1 hPa 0,0 l/m 0,0 km/h (0 Bft) SO 140 0 min 0 W/m -2,8 C -1,1 C 0,0 km/h (0 Bft)
16.02.2019 02:35 -1,1 C -1,1 C 88 % 1038,2 hPa 0,0 l/m 0,0 km/h (0 Bft) SO 140 0 min 0 W/m -2,8 C -1,1 C 0,0 km/h (0 Bft)
16.02.2019 02:30 -1,1 C -1,1 C 88 % 1038,2 hPa 0,0 l/m 0,0 km/h (0 Bft) SO 140 0 min 0 W/m -2,8 C -1,1 C 0,0 km/h (0 Bft)
16.02.2019 02:25 -1,1 C -1,1 C 88 % 1038,3 hPa 0,0 l/m 0,0 km/h (0 Bft) SO 140 0 min 0 W/m -2,8 C -1,1 C 1,6 km/h (1 Bft)
16.02.2019 02:20 -1,0 C -1,0 C 87 % 1038,3 hPa 0,0 l/m 0,2 km/h (0 Bft) SO 140 0 min 0 W/m -2,9 C -1,0 C 1,6 km/h (1 Bft)
16.02.2019 02:15 -0,9 C -0,9 C 87 % 1038,3 hPa 0,0 l/m 0,6 km/h (0 Bft) SO 140 0 min 0 W/m -2,8 C -0,9 C 1,6 km/h (1 Bft)
16.02.2019 02:10 -0,9 C -0,9 C 87 % 1038,3 hPa 0,0 l/m 1,0 km/h (0 Bft) SO 140 0 min 0 W/m -2,8 C -0,9 C 1,6 km/h (1 Bft)
16.02.2019 02:05 -0,8 C -0,8 C 87 % 1038,4 hPa 0,0 l/m 0,0 km/h (0 Bft) SO 140 0 min 0 W/m -2,7 C -0,8 C 0,0 km/h (0 Bft)
16.02.2019 02:00 -0,8 C -0,8 C 87 % 1038,3 hPa 0,0 l/m 0,1 km/h (0 Bft) SO 140 0 min 0 W/m -2,7 C -0,8 C 1,6 km/h (1 Bft)
16.02.2019 01:55 -0,7 C -0,7 C 87 % 1038,3 hPa 0,0 l/m 0,4 km/h (0 Bft) SO 140 0 min 0 W/m -2,6 C -0,7 C 1,6 km/h (1 Bft)
16.02.2019 01:50 -0,7 C -0,7 C 87 % 1038,3 hPa 0,0 l/m 0,7 km/h (0 Bft) SO 140 0 min 0 W/m -2,6 C -0,7 C 1,6 km/h (1 Bft)
16.02.2019 01:45 -0,6 C -0,6 C 87 % 1038,3 hPa 0,0 l/m 0,0 km/h (0 Bft) SO 140 0 min 0 W/m -2,5 C -0,6 C 0,0 km/h (0 Bft)
16.02.2019 01:40 -0,6 C -0,6 C 87 % 1038,4 hPa 0,0 l/m 0,1 km/h (0 Bft) SO 140 0 min 0 W/m -2,5 C -0,6 C 1,6 km/h (1 Bft)
16.02.2019 01:35 -0,5 C -0,5 C 87 % 1038,4 hPa 0,0 l/m 0,2 km/h (0 Bft) SO 140 0 min 0 W/m -2,4 C -0,5 C 1,6 km/h (1 Bft)
16.02.2019 01:30 -0,4 C -0,4 C 87 % 1038,5 hPa 0,0 l/m 0,2 km/h (0 Bft) SO 140 0 min 0 W/m -2,3 C -0,4 C 1,6 km/h (1 Bft)
16.02.2019 01:25 -0,3 C -0,3 C 87 % 1038,5 hPa 0,0 l/m 0,1 km/h (0 Bft) SO 140 0 min 0 W/m -2,2 C -0,3 C 1,6 km/h (1 Bft)
16.02.2019 01:20 -0,3 C -0,3 C 86 % 1038,5 hPa 0,0 l/m 0,0 km/h (0 Bft) SO 140 0 min 0 W/m -2,3 C -0,3 C 0,0 km/h (0 Bft)
16.02.2019 01:15 -0,3 C -0,3 C 86 % 1038,6 hPa 0,0 l/m 0,0 km/h (0 Bft) SO 140 0 min 0 W/m -2,3 C -0,3 C 0,0 km/h (0 Bft)
16.02.2019 01:10 -0,3 C -0,3 C 86 % 1038,6 hPa 0,0 l/m 0,3 km/h (0 Bft) SO 140 0 min 0 W/m -2,3 C -0,3 C 3,2 km/h (1 Bft)
16.02.2019 01:05 -0,2 C -0,2 C 86 % 1038,6 hPa 0,0 l/m 1,5 km/h (1 Bft) SO 140 0 min 0 W/m -2,3 C -0,2 C 3,2 km/h (1 Bft)
16.02.2019 01:00 -0,2 C -0,2 C 86 % 1038,7 hPa 0,0 l/m 0,3 km/h (0 Bft) SO 140 0 min 0 W/m -2,3 C -0,2 C 3,2 km/h (1 Bft)
16.02.2019 00:55 -0,1 C -0,1 C 85 % 1038,6 hPa 0,0 l/m 1,1 km/h (1 Bft) SO 140 0 min 0 W/m -2,3 C -0,1 C 3,2 km/h (1 Bft)
16.02.2019 00:50 -0,1 C -0,1 C 85 % 1038,6 hPa 0,0 l/m 1,3 km/h (1 Bft) SO 140 0 min 0 W/m -2,3 C -0,1 C 3,2 km/h (1 Bft)
16.02.2019 00:45 0,0 C 0,0 C 85 % 1038,6 hPa 0,0 l/m 0,6 km/h (0 Bft) SO 140 0 min 0 W/m -2,2 C 0,0 C 1,6 km/h (1 Bft)
16.02.2019 00:40 0,1 C 0,1 C 85 % 1038,5 hPa 0,0 l/m 0,4 km/h (0 Bft) SO 140 0 min 0 W/m -2,1 C 0,1 C 1,6 km/h (1 Bft)
16.02.2019 00:35 0,2 C 0,2 C 84 % 1038,6 hPa 0,0 l/m 0,5 km/h (0 Bft) SO 140 0 min 0 W/m -2,2 C 0,2 C 1,6 km/h (1 Bft)
16.02.2019 00:30 0,3 C 0,3 C 84 % 1038,6 hPa 0,0 l/m 0,5 km/h (0 Bft) SO 140 0 min 0 W/m -2,1 C 0,3 C 3,2 km/h (1 Bft)
16.02.2019 00:25 0,4 C 0,4 C 84 % 1038,6 hPa 0,0 l/m 0,0 km/h (0 Bft) SO 140 0 min 0 W/m -2,0 C 0,4 C 0,0 km/h (0 Bft)
16.02.2019 00:20 0,5 C 0,5 C 84 % 1038,6 hPa 0,0 l/m 0,0 km/h (0 Bft) SO 140 0 min 0 W/m -1,9 C 0,5 C 1,6 km/h (1 Bft)
16.02.2019 00:15 0,6 C 0,6 C 84 % 1038,6 hPa 0,0 l/m 0,0 km/h (0 Bft) SO 140 0 min 0 W/m -1,8 C 0,6 C 0,0 km/h (0 Bft)
16.02.2019 00:10 0,7 C 0,7 C 84 % 1038,6 hPa 0,0 l/m 1,6 km/h (1 Bft) SO 140 0 min 0 W/m -1,7 C 0,7 C 4,8 km/h (1 Bft)
16.02.2019 00:05 0,8 C 0,8 C 83 % 1038,5 hPa 0,0 l/m 0,6 km/h (0 Bft) SO 142 0 min 0 W/m -1,8 C 0,8 C 1,6 km/h (1 Bft)
16.02.2019 00:00 0,9 C 0,9 C 84 % 1038,5 hPa 0,0 l/m 1,0 km/h (0 Bft) SO 142 0 min 0 W/m -1,5 C 0,9 C 3,2 km/h (1 Bft)
_ Min-Zeit 06:40 06:40 00:05 03:25 - 00:15 - - - - 06:40 06:40 00:15
Minimum _ -2,6 C -2,6 C 83 % 1037,7 hPa - 0,0 km/h (0 Bft) - - - - -4,0 C -2,6 C 0,0 km/h (0 Bft)
_ Max-Zeit 00:00 00:00 05:05 01:00 00:00 04:15 - - 00:00 00:00 00:00 00:00 04:15
Maximum _ 1,0 C 0,9 C 90 % 1038,7 hPa 0,0 l/m 3,7 km/h
S-SW (1 Bft)
- - 0 min 0 W/m -1,5 C 0,9 C 6,4 km/h
S-SW (2 Bft)
Durchschnitt _ -1,2 C -1,3 C 88 % 1038,2 hPa #0,0 l/m 0,5 km/h (0 Bft) SO - #0 min. 0 W/m -3,0 C -1,2 C 1,5 km/h (1 Bft)